Date String (YYYY-MM-DD hh:mm:ss) UTC,Instrument flags,Ambient pressure (hPa),Sample flow (lpm),Bypass flow (lpm),Sample temperature (°C),Ambient temperature (°C),ASC tube jacket temperature (°C),LED temperature (°C),Box temperature (°C),Sample RH (%),Span deviation,Mass concentration (μg/m³),Mass concentration (μg/m³),Mass concentration (μg/m³)
DateTimeUTC,F1_M11,P_M11,Q1_M11,Q2_M11,T1_M11,T2_M11,T3_M11,T4_M11,T5_M11,U1_M11,ZSPAN_M11,X0_M11,X2_M11,X1_M11
2022-05-25 17:00:00,,0826.5,5.00,0.00,27.1,26.3,00.0,35.8,29.0,14.9,0000.0,0003.79,0002.61,0002.14
2022-05-25 17:01:00,,0826.5,5.00,0.00,27.1,26.3,00.0,35.8,29.0,14.7,0000.0,0003.74,0002.60,0002.14
2022-05-25 17:02:00,,0826.5,5.01,0.00,27.1,26.3,00.0,35.9,29.0,14.5,0000.0,0003.77,0002.61,0002.14
2022-05-25 17:03:00,,0826.5,5.00,0.00,27.1,26.3,00.0,35.9,29.1,14.2,0000.0,0003.70,0002.61,0002.15
2022-05-25 17:04:00,,0826.5,4.99,0.00,27.1,26.3,00.0,35.9,29.1,14.0,0000.0,0003.70,0002.63,0002.16
2022-05-25 17:05:00,,0826.5,5.00,0.00,27.1,26.3,00.0,35.9,29.1,13.6,0000.0,0003.74,0002.65,0002.18
2022-05-25 17:06:00,,0826.5,5.00,0.00,27.2,26.4,00.0,35.9,29.1,14.1,0000.0,0003.79,0002.67,0002.20
2022-05-25 17:07:00,,0826.5,5.00,0.00,27.2,26.4,00.0,35.9,29.1,14.2,0000.0,0003.90,0002.66,0002.20
2022-05-25 17:08:00,,0826.5,5.00,0.00,27.2,26.4,00.0,35.9,29.2,14.8,0000.0,0003.94,0002.68,0002.19
2022-05-25 17:09:00,,0826.5,5.01,0.00,27.2,26.4,00.0,36.0,29.2,14.9,0000.0,0003.91,0002.69,0002.19
2022-05-25 17:10:00,,0826.4,4.99,0.00,27.2,26.4,00.0,36.0,29.2,15.8,0000.0,0003.84,0002.63,0002.19
2022-05-25 17:11:00,,0826.4,4.99,0.00,27.2,26.4,00.0,36.0,29.2,15.3,0000.0,0004.60,0002.63,0002.20
2022-05-25 17:12:00,,0826.4,5.01,0.00,27.2,26.5,00.0,36.0,29.2,14.9,0000.0,0004.66,0002.63,0002.21
2022-05-25 17:13:00,,0826.4,5.00,0.00,27.3,26.5,00.0,36.0,29.2,14.8,0000.0,0004.65,0002.62,0002.21
2022-05-25 17:14:00,,0826.4,5.01,0.00,27.3,26.5,00.0,36.1,29.3,14.6,0000.0,0004.65,0002.63,0002.22
2022-05-25 17:15:00,,0826.4,5.01,0.00,27.3,26.5,00.0,36.1,29.3,15.0,0000.0,0004.82,0002.70,0002.22
2022-05-25 17:16:00,,0826.3,5.00,0.00,27.3,26.5,00.0,36.1,29.3,14.5,0000.0,0004.92,0002.70,0002.22
2022-05-25 17:17:00,,0826.3,5.00,0.00,27.3,26.5,00.0,36.1,29.3,14.8,0000.0,0005.10,0002.70,0002.21
2022-05-25 17:18:00,,0826.4,4.99,0.00,27.3,26.6,00.0,36.1,29.3,14.8,0000.0,0005.03,0002.68,0002.19
2022-05-25 17:19:00,,0826.3,4.99,0.00,27.4,26.6,00.0,36.1,29.3,14.8,0000.0,0004.95,0002.65,0002.17
2022-05-25 17:20:00,,0826.3,5.01,0.00,27.4,26.6,00.0,36.1,29.3,14.1,0000.0,0004.83,0002.59,0002.16
2022-05-25 17:21:00,,0826.3,5.00,0.00,27.4,26.6,00.0,36.2,29.3,14.7,0000.0,0004.87,0002.60,0002.16
2022-05-25 17:22:00,,0826.3,4.99,0.00,27.4,26.6,00.0,36.2,29.4,14.7,0000.0,0004.18,0002.57,0002.15
2022-05-25 17:23:00,,0826.3,4.99,0.00,27.4,26.6,00.0,36.2,29.4,14.6,0000.0,0003.82,0002.53,0002.14
2022-05-25 17:24:00,,0826.4,5.00,0.00,27.4,26.7,00.0,36.2,29.4,14.7,0000.0,0003.73,0002.50,0002.13
2022-05-25 17:25:00,,0826.4,5.01,0.00,27.5,26.7,00.0,36.2,29.4,14.9,0000.0,0003.65,0002.45,0002.10
2022-05-25 17:26:00,,0826.4,4.99,0.00,27.5,26.7,00.0,36.2,29.4,15.1,0000.0,0003.44,0002.36,0002.08
2022-05-25 17:27:00,,0826.4,5.00,0.00,27.5,26.7,00.0,36.3,29.4,14.4,0000.0,0003.43,0002.37,0002.06
2022-05-25 17:28:00,,0826.4,5.01,0.00,27.5,26.7,00.0,36.3,29.4,14.5,0000.0,0003.19,0002.35,0002.06
2022-05-25 17:29:00,,0826.3,4.99,0.00,27.5,26.7,00.0,36.3,29.5,14.1,0000.0,0003.20,0002.37,0002.08
2022-05-25 17:30:00,,0826.3,5.02,0.00,27.5,26.7,00.0,36.3,29.5,14.0,0000.0,0003.29,0002.40,0002.08
2022-05-25 17:31:00,,0826.3,5.01,0.00,27.6,26.8,00.0,36.3,29.5,14.3,0000.0,0003.28,0002.41,0002.07
2022-05-25 17:32:00,,0826.3,4.99,0.00,27.6,26.8,00.0,36.3,29.5,13.9,0000.0,0003.29,0002.41,0002.07
2022-05-25 17:33:00,,0826.3,5.00,0.00,27.6,26.8,00.0,36.3,29.5,14.1,0000.0,0003.31,0002.42,0002.07
2022-05-25 17:34:00,,0826.3,5.01,0.00,27.6,26.8,00.0,36.4,29.5,13.8,0000.0,0003.34,0002.43,0002.08
2022-05-25 17:35:00,,0826.3,5.00,0.00,27.6,26.8,00.0,36.4,29.6,13.7,0000.0,0003.40,0002.45,0002.08
2022-05-25 17:36:00,,0826.3,5.00,0.00,27.6,26.8,00.0,36.4,29.6,13.7,0000.0,0003.49,0002.46,0002.08
2022-05-25 17:37:00,,0826.3,4.99,0.00,27.6,26.8,00.0,36.4,29.6,13.7,0000.0,0003.48,0002.47,0002.09
2022-05-25 17:38:00,,0826.2,5.00,0.00,27.7,26.9,00.0,36.4,29.6,13.9,0000.0,0003.42,0002.46,0002.10
2022-05-25 17:39:00,,0826.3,5.00,0.00,27.7,26.9,00.0,36.4,29.6,13.8,0000.0,0003.53,0002.49,0002.10
2022-05-25 17:40:00,,0826.2,5.01,0.00,27.7,26.9,00.0,36.5,29.6,13.5,0000.0,0003.54,0002.49,0002.09
2022-05-25 17:41:00,,0826.2,5.00,0.00,27.7,26.9,00.0,36.5,29.6,13.9,0000.0,0003.46,0002.48,0002.10
2022-05-25 17:42:00,,0826.2,4.99,0.00,27.7,26.9,00.0,36.5,29.7,13.9,0000.0,0003.56,0002.50,0002.11
2022-05-25 17:43:00,,0826.2,5.00,0.00,27.7,26.9,00.0,36.5,29.7,13.5,0000.0,0003.74,0002.53,0002.11
2022-05-25 17:44:00,,0826.2,5.01,0.00,27.7,26.9,00.0,36.5,29.7,13.8,0000.0,0003.73,0002.52,0002.10
2022-05-25 17:45:00,,0826.2,4.99,0.00,27.8,27.0,00.0,36.5,29.7,13.7,0000.0,0003.70,0002.51,0002.10
2022-05-25 17:46:00,,0826.2,4.99,0.00,27.8,27.0,00.0,36.6,29.7,13.5,0000.0,0003.56,0002.48,0002.10
2022-05-25 17:47:00,,0826.2,5.01,0.00,27.8,27.0,00.0,36.6,29.7,13.7,0000.0,0003.50,0002.49,0002.10
2022-05-25 17:48:00,,0826.2,4.99,0.00,27.8,27.0,00.0,36.6,29.7,13.4,0000.0,0003.51,0002.50,0002.10
2022-05-25 17:49:00,,0826.1,5.00,0.00,27.8,27.0,00.0,36.6,29.8,13.4,0000.0,0003.54,0002.51,0002.11
2022-05-25 17:50:00,,0826.1,5.00,0.00,27.8,27.0,00.0,36.6,29.8,13.9,0000.0,0003.52,0002.51,0002.12
2022-05-25 17:51:00,,0826.2,5.00,0.00,27.8,27.1,00.0,36.6,29.8,14.5,0000.0,0003.46,0002.50,0002.13
2022-05-25 17:52:00,,0826.2,5.00,0.00,27.9,27.1,00.0,36.7,29.8,14.1,0000.0,0003.41,0002.49,0002.14
2022-05-25 17:53:00,,0826.1,5.00,0.00,27.9,27.1,00.0,36.7,29.8,15.1,0000.0,0003.32,0002.46,0002.14
2022-05-25 17:54:00,,0826.1,4.99,0.00,27.9,27.1,00.0,36.7,29.8,15.0,0000.0,0003.18,0002.43,0002.14
2022-05-25 17:55:00,,0826.2,5.01,0.00,27.9,27.1,00.0,36.7,29.8,14.7,0000.0,0003.28,0002.47,0002.16
2022-05-25 17:56:00,,0826.2,5.00,0.00,27.9,27.1,00.0,36.7,29.9,13.8,0000.0,0003.34,0002.50,0002.17
2022-05-25 17:57:00,,0826.2,5.01,0.00,27.9,27.1,00.0,36.7,29.9,13.7,0000.0,0003.44,0002.55,0002.18
2022-05-25 17:58:00,,0826.2,5.00,0.00,27.9,27.2,00.0,36.7,29.9,14.0,0000.0,0003.53,0002.59,0002.19
2022-05-25 17:59:00,,0826.1,4.99,0.00,28.0,27.2,00.0,36.8,29.9,14.2,0000.0,0003.55,0002.60,0002.20
